PLATFORM,ARGOS_ID,DATE (YYYY/MM/DD HH:MI:SS),LATITUDE (degree_north),LONGITUDE (degree_east),DEPH (meter),EWCT (meter/second),NSCT (meter/second),WSTN_MODEL (newton/m2),WSPN_MODEL (meter/second),CO00 (none),WSTE_MODEL (newton/m2),WSPE_MODEL (meter/second),TEMP LEVEL0 (degree_Celsius),EWCT LEVEL1 (meter/second),NSCT LEVEL1 (meter/second),QC,SVP_RCBN_Number,SVP_GNRL_ImmPercent,SVP_GNRL_BattVolt
61942,72512,2007/10/10 14:02:57,43.5776,7.4972,,,,,,,,,21.24,,,0011199999999199,5,0,12.4
61942,72512,2007/10/10 15:00:09,43.5828,7.4747,,,,,,,,,20.92,-0.528086,0.168477,0011199999999100,8,0,12.4
61942,72512,2007/10/10 16:00:10,43.5818,7.4606,,,,,,,,,20.92,-0.315392,-0.030879,0011199999999100,5,3,12.4
61942,72512,2007/10/10 17:00:16,43.5798,7.4473,,,,,,,,,20.92,-0.297092,-0.061672,0011199999999100,3,4,12.4
61942,72512,2007/10/10 18:00:35,43.5767,7.4348,,,,,,,,,20.92,-0.278231,-0.095248,0011199999999100,3,3,12.4
61942,72512,2007/10/10 19:00:06,43.5728,7.4225,,,,,,,,,20.92,-0.277475,-0.121439,0011199999999100,3,4,12.4
61942,72512,2007/10/10 20:00:10,43.5675,7.4100,,,,,,,,,20.92,-0.279426,-0.163522,0011199999999100,4,3,12.4
61942,72512,2007/10/10 21:00:16,43.5629,7.3965,,,,,,,,,20.92,-0.301638,-0.141846,0011199999999100,3,1,12.4
61942,72512,2007/10/10 22:00:40,43.5579,7.3820,,,,,,,,,20.84,-0.322398,-0.153415,0011199999999100,3,0,12.4
61942,72512,2007/10/10 23:00:10,43.5528,7.3683,,,,,,,,,20.84,-0.309244,-0.15885,0011199999999100,3,0,12.4
61942,72512,2007/10/11 00:00:10,43.5472,7.3536,,,,,,,,,20.84,-0.32908,-0.17297,0011199999999100,1,0,12.4
61942,72512,2007/10/11 01:00:16,43.5408,7.3390,,,,,,,,,20.84,-0.32633,-0.197351,0011199999999100,3,7,12.4
61942,72512,2007/10/11 02:00:59,43.5346,7.3240,,,,,,,,,20.84,-0.331901,-0.189242,0011199999999100,5,12,12.4
61942,72512,2007/10/11 03:00:16,43.5292,7.3100,,,,,,,,,20.84,-0.317294,-0.168809,0011199999999100,3,22,12.4
61942,72512,2007/10/11 04:00:16,43.5232,7.2961,,,,,,,,,20.84,-0.311294,-0.185325,0011199999999100,4,46,12.4
61942,72512,2007/10/11 05:00:40,43.5166,7.2828,,,,,,,,,20.84,-0.295915,-0.202507,0011199999999100,5,23,12.4
61942,72512,2007/10/11 06:00:10,43.5096,7.2699,,,,,,,,,20.84,-0.29139,-0.218029,0011199999999100,6,33,12.4
61942,72512,2007/10/11 07:00:16,43.5021,7.2576,,,,,,,,,20.76,-0.275096,-0.231271,0011199999999100,1,19,12.4
61942,72512,2007/10/11 08:00:39,43.4942,7.2454,,,,,,,,,20.76,-0.271614,-0.242462,0011199999999100,4,30,12.4
61942,72512,2007/10/11 09:00:10,43.4861,7.2328,,,,,,,,,20.76,-0.284642,-0.25222,0011199999999100,4,23,12.4
61942,72512,2007/10/11 10:00:10,43.4775,7.2192,,,,,,,,,20.84,-0.3048,-0.265632,0011199999999100,5,6,12.4
61942,72512,2007/10/11 11:00:40,43.4693,7.2056,,,,,,,,,21.24,-0.302323,-0.251184,0011199999999100,7,1,12.4
61942,72512,2007/10/11 12:00:16,43.4614,7.1919,,,,,,,,,21.16,-0.309186,-0.245649,0011199999999100,4,1,12.4
61942,72512,2007/10/11 13:00:17,43.4529,7.1777,,,,,,,,,20.92,-0.318288,-0.262471,0011199999999100,1,100,12.4
61942,72512,2007/10/11 14:00:40,43.4444,7.1625,,,,,,,,,20.92,-0.338681,-0.260877,0011199999999100,5,100,12.4
61942,72512,2007/10/11 15:00:10,43.4361,7.1479,,,,,,,,,20.84,-0.330188,-0.25852,0011199999999100,3,100,12.4
61942,72512,2007/10/11 16:00:11,43.4280,7.1329,,,,,,,,,20.84,-0.336359,-0.250119,0011199999999100,1,100,12.4
61942,72512,2007/10/11 17:00:28,43.4199,7.1180,,,,,,,,,20.76,-0.332683,-0.249013,0011199999999100,3,100,12.4
61942,72512,2007/10/11 18:01:04,43.4122,7.1042,,,,,,,,,20.76,-0.306553,-0.235479,0011199999999100,3,100,12.4
61942,72512,2007/10/11 19:00:10,43.4043,7.0906,,,,,,,,,20.84,-0.309818,-0.247727,0011199999999100,3,100,12.4
61942,72512,2007/10/11 20:00:16,43.3948,7.0776,,,,,,,,,20.76,-0.291264,-0.292943,0011199999999100,1,100,12.4
61942,72512,2007/10/11 21:00:17,43.3851,7.0640,,,,,,,,,20.76,-0.305178,-0.299525,0011199999999100,4,100,12.4
61942,72512,2007/10/11 22:00:40,43.3753,7.0504,,,,,,,,,20.84,-0.303374,-0.300776,0011199999999100,3,100,12.4
61942,72512,2007/10/11 23:00:10,43.3654,7.0378,,,,,,,,,20.84,-0.285286,-0.308356,0011199999999100,3,100,12.4
61942,72512,2007/10/12 00:00:10,43.3557,7.0242,,,,,,,,,20.76,-0.305411,-0.299609,0011199999999100,3,63,12.4
61942,72512,2007/10/12 01:00:16,43.3470,7.0103,,,,,,,,,20.76,-0.311676,-0.268274,0011199999999100,4,100,12.4
61942,72512,2007/10/12 02:00:40,43.3389,6.9970,,,,,,,,,20.76,-0.296782,-0.248532,0011199999999100,4,100,12.4
61942,72512,2007/10/12 03:00:16,43.3307,6.9855,,,,,,,,,20.76,-0.260095,-0.254977,0011199999999100,1,96,12.4
61942,72512,2007/10/12 04:00:22,43.3226,6.9746,,,,,,,,,20.76,-0.244507,-0.249772,0011199999999100,3,100,12.4
61942,72512,2007/10/12 05:00:39,43.3137,6.9653,,,,,,,,,20.76,-0.208011,-0.273607,0011199999999100,1,100,12.4
61942,72512,2007/10/12 06:00:10,43.3045,6.9567,,,,,,,,,20.76,-0.194861,-0.286473,0011199999999100,5,100,12.4
61942,72512,2007/10/12 07:00:10,43.2940,6.9483,,,,,,,,,20.76,-0.188826,-0.324319,0011199999999100,3,100,12.4
61942,72512,2007/10/12 08:00:40,43.2833,6.9400,,,,,,,,,20.76,-0.185069,-0.327765,0011199999999100,3,82,12.4
61942,72512,2007/10/12 09:00:10,43.2729,6.9315,,,,,,,,,20.68,-0.192747,-0.323929,0011199999999100,3,74,12.4
61942,72512,2007/10/12 10:00:11,43.2622,6.9236,,,,,,,,,20.76,-0.17763,-0.330404,0011199999999100,1,30,12.4
61942,72512,2007/10/12 11:00:40,43.2520,6.9155,,,,,,,,,20.68,-0.180753,-0.312535,0011199999999100,1,0,12.4
61942,72512,2007/10/12 12:00:11,43.2419,6.9089,,,,,,,,,20.44,-0.149697,-0.314497,0011199999999100,1,0,12.4
61942,72512,2007/10/12 13:00:10,43.2310,6.9024,,,,,,,,,20.36,-0.146307,-0.336767,0011199999999100,1,3,12.4
61942,72512,2007/10/12 14:00:40,43.2203,6.8939,,,,,,,,,20.36,-0.189725,-0.327765,0011199999999100,3,19,12.4
61942,72512,2007/10/12 15:00:16,43.2102,6.8867,,,,,,,,,20.36,-0.163162,-0.314057,0011199999999100,1,33,12.4
61942,72512,2007/10/12 16:00:16,43.1993,6.8801,,,,,,,,,20.36,-0.148594,-0.336674,0011199999999100,1,41,12.4
61942,72512,2007/10/12 17:00:40,43.1881,6.8715,,,,,,,,,20.28,-0.192375,-0.343649,0011199999999100,1,61,12.4
61942,72512,2007/10/12 18:00:10,43.1771,6.8608,,,,,,,,,20.28,-0.243015,-0.342617,0011199999999100,4,96,12.4
61942,72512,2007/10/12 19:00:16,43.1676,6.8491,,,,,,,,,20.2,-0.263118,-0.292943,0011199999999100,1,74,12.4
61942,72512,2007/10/12 20:00:35,43.1594,6.8389,,,,,,,,,20.2,-0.228594,-0.251948,0011199999999100,3,25,12.4
61942,72512,2007/10/12 21:00:16,43.1509,6.8302,,,,,,,,,20.2,-0.197073,-0.263937,0011199999999100,1,15,12.4
61942,72512,2007/10/12 22:00:16,43.1417,6.8211,,,,,,,,,20.28,-0.205076,-0.284165,0011199999999100,1,11,12.4
61942,72512,2007/10/12 23:00:40,43.1327,6.8115,,,,,,,,,20.2,-0.214943,-0.276146,0011199999999100,1,4,12.4
61942,72512,2007/10/13 00:00:11,43.1247,6.8028,,,,,,,,,20.12,-0.197711,-0.249107,0011199999999100,1,0,12.3
61942,72512,2007/10/13 01:00:10,43.1167,6.7953,,,,,,,,,20.12,-0.169136,-0.247168,0011199999999100,1,4,12.4
61942,72512,2007/10/13 02:00:40,43.1074,6.7879,,,,,,,,,20.12,-0.165479,-0.28488,0011199999999100,4,11,12.4
61942,72512,2007/10/13 03:00:10,43.0975,6.7803,,,,,,,,,20.04,-0.172835,-0.308356,0011199999999100,4,33,12.4
61942,72512,2007/10/13 04:00:10,43.0876,6.7718,,,,,,,,,20.2,-0.191723,-0.305786,0011199999999100,1,20,12.4
61942,72512,2007/10/13 05:00:40,43.0767,6.7627,,,,,,,,,20.36,-0.203594,-0.333891,0011199999999100,3,31,12.4
61942,72512,2007/10/13 06:00:16,43.0654,6.7517,,,,,,,,,20.36,-0.249865,-0.351371,0011199999999100,1,38,12.4
61942,72512,2007/10/13 07:00:11,43.0548,6.7388,,,,,,,,,20.36,-0.291526,-0.327863,0011199999999100,1,20,12.4
61942,72512,2007/10/13 08:00:40,43.0451,6.7249,,,,,,,,,20.28,-0.311234,-0.297214,0011199999999100,1,38,12.4
61942,72512,2007/10/13 09:00:10,43.0362,6.7125,,,,,,,,,20.36,-0.282279,-0.277209,0011199999999100,1,71,12.4
61942,72512,2007/10/13 10:00:16,43.0284,6.6999,,,,,,,,,20.52,-0.284007,-0.240521,0011199999999100,4,79,12.4
61942,72512,2007/10/13 11:00:40,43.0208,6.6863,,,,,,,,,20.68,-0.305063,-0.23319,0011199999999100,3,66,12.4
61942,72512,2007/10/13 12:00:11,43.0132,6.6730,,,,,,,,,20.76,-0.302799,-0.236651,0011199999999100,3,15,12.4
61942,72512,2007/10/13 13:00:16,43.0069,6.6614,,,,,,,,,20.84,-0.261634,-0.194321,0011199999999100,4,41,12.4
61942,72512,2007/10/13 14:00:39,43.0008,6.6501,,,,,,,,,20.84,-0.253627,-0.187218,0011199999999100,4,63,12.4
61942,72512,2007/10/13 15:00:10,42.9950,6.6386,,,,,,,,,20.84,-0.2619,-0.180602,0011199999999100,5,22,12.4
61942,72512,2007/10/13 16:00:16,42.9888,6.6283,,,,,,,,,20.76,-0.232317,-0.191184,0011199999999100,6,19,12.4
61942,72512,2007/10/13 17:00:10,42.9817,6.6186,,,,,,,,,20.76,-0.219538,-0.219667,0011199999999100,4,0,12.4
61942,72512,2007/10/13 18:00:40,42.9746,6.6082,,,,,,,,,20.68,-0.233074,-0.217489,0011199999999100,1,7,12.4
61942,72512,2007/10/13 20:00:10,42.9581,6.5852,,,,,,,,,20.6,-0.261011,-0.255888,0011199999999100,1,11,12.4
61942,72512,2007/10/13 21:00:20,42.9494,6.5725,,,,,,,,,20.6,-0.286309,-0.267977,0011199999999100,4,42,12.4
61942,72512,2007/10/13 22:00:40,42.9408,6.5591,,,,,,,,,20.44,-0.301298,-0.264165,0011199999999100,1,98,12.4
61942,72512,2007/10/13 23:00:10,42.9323,6.5448,,,,,,,,,20.12,-0.326083,-0.26475,0011199999999100,4,98,12.4
61942,72512,2007/10/14 00:00:10,42.9234,6.5294,,,,,,,,,19.88,-0.348289,-0.274899,0011199999999100,1,100,12.4
61942,72512,2007/10/14 01:00:40,42.9160,6.5139,,,,,,,,,19.8,-0.3477,-0.226678,0011199999999100,3,100,12.4
61942,72512,2007/10/14 02:00:16,42.9090,6.4987,,,,,,,,,19.72,-0.346159,-0.217663,0011199999999100,1,100,12.4
61942,72512,2007/10/14 03:00:16,42.9026,6.4830,,,,,,,,,19.72,-0.355201,-0.19768,0011199999999100,4,100,12.4
61942,72512,2007/10/14 04:01:47,42.8973,6.4669,,,,,,,,,19.56,-0.355304,-0.159668,0011199999999100,4,100,12.4
61942,72512,2007/10/14 05:00:40,42.8926,6.4516,,,,,,,,,19.56,-0.352778,-0.147924,0011199999999100,3,100,12.4
61942,72512,2007/10/14 06:00:10,42.8882,6.4360,,,,,,,,,19.48,-0.355993,-0.137047,0011199999999100,1,100,12.4
61942,72512,2007/10/14 07:00:23,42.8841,6.4197,,,,,,,,,19.48,-0.367566,-0.126183,0011199999999100,1,100,12.4
61942,72512,2007/10/14 08:01:28,42.8808,6.4032,,,,,,,,,19.4,-0.366819,-0.100121,0011199999999100,4,100,12.3
61942,72512,2007/10/14 09:00:16,42.8775,6.3878,,,,,,,,,19.48,-0.355678,-0.104009,0011199999999100,1,100,12.3
61942,72512,2007/10/14 10:00:19,42.8740,6.3719,,,,,,,,,19.56,-0.359602,-0.108016,0011199999999100,1,100,12.3
61942,72512,2007/10/14 11:00:40,42.8703,6.3556,,,,,,,,,19.64,-0.366837,-0.113621,0011199999999100,1,100,12.3
61942,72512,2007/10/14 12:00:12,42.8669,6.3398,,,,,,,,,19.72,-0.360483,-0.105841,0011199999999100,1,100,12.3
61942,72512,2007/10/14 13:00:40,42.8628,6.3242,,,,,,,,,19.64,-0.350447,-0.125661,0011199999999100,3,100,12.3
61942,72512,2007/10/14 14:00:10,42.8598,6.3086,,,,,,,,,19.56,-0.356161,-0.093441,0011199999999100,3,100,12.3
61942,72512,2007/10/14 15:00:10,42.8570,6.2929,,,,,,,,,19.64,-0.355474,-0.086485,0011199999999100,1,100,12.3
61942,72512,2007/10/14 16:00:40,42.8547,6.2758,,,,,,,,,19.64,-0.383989,-0.070454,0011199999999100,1,100,12.3
61942,72512,2007/10/14 17:00:10,42.8532,6.2590,,,,,,,,,19.72,-0.383604,-0.046721,0011199999999100,3,100,12.3
61942,72512,2007/10/14 19:00:40,42.8514,6.2251,,,,,,,,,19.72,-0.382222,-0.027683,0011199999999100,1,100,12.3
61942,72512,2007/10/14 20:00:10,42.8512,6.2079,,,,,,,,,19.64,-0.392754,-0.006229,0011199999999100,1,100,12.3
61942,72512,2007/10/14 21:00:10,42.8516,6.1910,,,,,,,,,19.64,-0.382687,0.012355,0011199999999100,1,100,12.3
61942,72512,2007/10/14 22:00:38,42.8533,6.1730,,,,,,,,,19.72,-0.404444,0.052103,0011199999999100,1,100,12.3
61942,72512,2007/10/14 23:00:16,42.8559,6.1539,,,,,,,,,20.12,-0.435142,0.080801,0011199999999100,1,100,12.3
61942,72512,2007/10/15 00:00:11,42.8586,6.1352,,,,,,,,,20.2,-0.423996,0.083512,0011199999999100,4,100,12.3
61942,72512,2007/10/15 01:00:11,42.8611,6.1173,,,,,,,,,20.28,-0.405276,0.077219,0011199999999100,3,100,12.3
61942,72512,2007/10/15 02:00:40,42.8634,6.0988,,,,,,,,,20.2,-0.415498,0.070473,0011199999999100,3,100,12.3
61942,72512,2007/10/15 03:00:10,42.8663,6.0815,,,,,,,,,20.28,-0.394951,0.090326,0011199999999100,6,100,12.3
61942,72512,2007/10/15 04:00:16,42.8689,6.0653,,,,,,,,,20.2,-0.36613,0.080174,0011199999999100,3,100,12.3
61942,72512,2007/10/15 05:00:00,42.8726,6.0506,,,,,,,,,20.04,-0.334706,0.113553,0011199999999100,3,100,12.3
61942,72512,2007/10/15 06:00:40,42.8735,6.0349,,,,,,,,,19.88,-0.351037,0.028715,0011199999999100,3,100,12.3
61942,72512,2007/10/15 07:00:16,42.8737,6.0200,,,,,,,,,19.88,-0.339541,0.006219,0011199999999100,1,100,12.3
61942,72512,2007/10/15 08:00:11,42.8727,6.0038,,,,,,,,,19.8,-0.367217,-0.03093,0011199999999100,1,100,12.3
61942,72512,2007/10/15 09:00:40,42.8722,5.9848,,,,,,,,,19.8,-0.426657,-0.01532,0011199999999100,1,100,12.3
61942,72512,2007/10/15 10:00:15,42.8720,5.9655,,,,,,,,,19.8,-0.439942,-0.006221,0011199999999100,1,100,12.3
61942,72512,2007/10/15 11:00:40,42.8728,5.9463,,,,,,,,,19.8,-0.431624,0.02454,0011199999999100,3,100,12.3
61942,72512,2007/10/15 12:00:16,42.8741,5.9280,,,,,,,,,19.8,-0.417022,0.040423,0011199999999100,1,100,12.3
61942,72512,2007/10/15 13:00:16,42.8762,5.9104,,,,,,,,,19.72,-0.398385,0.064864,0011199999999100,1,100,12.3
61942,72512,2007/10/15 14:00:40,42.8782,5.8933,,,,,,,,,19.72,-0.384491,0.061366,0011199999999100,5,100,12.3
61942,72512,2007/10/15 15:00:06,42.8813,5.8763,,,,,,,,,19.72,-0.388444,0.096664,0011199999999100,3,100,12.3
61942,72512,2007/10/15 16:00:10,42.8840,5.8594,,,,,,,,,19.72,-0.382069,0.083304,0011199999999100,1,100,12.3
61942,72512,2007/10/15 17:00:41,42.8882,5.8431,,,,,,,,,19.72,-0.365744,0.12862,0011199999999100,3,100,12.3
61942,72512,2007/10/15 18:00:22,42.8926,5.8266,,,,,,,,,19.64,-0.375375,0.136626,0011199999999100,1,100,12.3
61942,72512,2007/10/15 19:00:40,42.8972,5.8112,,,,,,,,,19.56,-0.346742,0.141376,0011199999999100,1,100,12.3
61942,72512,2007/10/15 20:00:22,42.9017,5.7961,,,,,,,,,19.56,-0.343379,0.139692,0011199999999100,1,100,12.3
61942,72512,2007/10/15 21:00:11,42.9051,5.7823,,,,,,,,,19.56,-0.313184,0.105339,0011199999999100,1,100,12.3
61942,72512,2007/10/15 22:01:10,42.9084,5.7674,,,,,,,,,19.48,-0.331661,0.100285,0011199999999100,1,100,12.3
61942,72512,2007/10/15 23:00:10,42.9128,5.7537,,,,,,,,,19.48,-0.315181,0.138208,0011199999999100,3,100,12.3
61942,72512,2007/10/16 00:00:10,42.9162,5.7385,,,,,,,,,19.4,-0.34384,0.105017,0011199999999100,1,100,12.3
61942,72512,2007/10/16 01:00:16,42.9195,5.7229,,,,,,,,,19.4,-0.352283,0.101759,0011199999999100,1,100,12.3
61942,72512,2007/10/16 02:00:40,42.9224,5.7059,,,,,,,,,19.4,-0.381972,0.08898,0011199999999100,5,100,12.3
61942,72512,2007/10/16 03:00:16,42.9251,5.6883,,,,,,,,,19.4,-0.400743,0.083956,0011199999999100,6,100,12.3
61942,72512,2007/10/16 04:00:10,42.9296,5.6704,,,,,,,,,29.72,-0.405509,0.139226,0011199999999400,1,100,9.1
61942,72512,2007/10/16 05:00:36,42.9344,5.6530,,,,,,,,,19.48,-0.390674,0.147197,0011199999999100,1,100,12.3
61942,72512,2007/10/16 06:00:17,42.9394,5.6358,,,,,,,,,19.48,-0.391005,0.155257,0011199999999100,1,100,12.3
61942,72512,2007/10/16 07:00:10,42.9443,5.6194,,,,,,,,,19.48,-0.371544,0.151644,0011199999999100,1,100,12.3
61942,72512,2007/10/16 08:00:40,42.9488,5.6031,,,,,,,,,19.48,-0.365486,0.137845,0011199999999100,3,100,12.3
61942,72512,2007/10/16 09:00:10,42.9527,5.5868,,,,,,,,,19.48,-0.371603,0.121473,0011199999999100,1,100,12.3
61942,72512,2007/10/16 10:00:16,42.9565,5.5704,,,,,,,,,19.48,-0.370127,0.117177,0011199999999100,1,100,12.3
61942,72512,2007/10/16 11:00:40,42.9602,5.5544,,,,,,,,,19.48,-0.359284,0.113527,0011199999999100,5,100,12.3
61942,72512,2007/10/16 12:01:09,42.9637,5.5386,,,,,,,,,19.48,-0.354284,0.107242,0011199999999100,1,100,12.3
61942,72512,2007/10/16 13:00:15,42.9676,5.5231,,,,,,,,,19.48,-0.355671,0.122296,0011199999999100,1,100,12.3
61942,72512,2007/10/16 14:00:22,42.9709,5.5070,,,,,,,,,19.4,-0.36317,0.101731,0011199999999100,5,100,12.3
61942,72512,2007/10/16 15:00:25,42.9729,5.4901,,,,,,,,,19.32,-0.381622,0.061724,0011199999999100,3,100,12.3
61942,72512,2007/10/16 15:02:01,42.9728,5.4871,,,,,,,,,19.64,-2.54246,-0.115828,0011199999999400,1,100,12.1
61942,72512,2007/10/16 16:01:04,42.9742,5.4721,,,,,,,,,19.32,-0.344445,0.043938,0011199999999100,1,100,12.3
61942,72512,2007/10/16 17:00:16,42.9753,5.4530,,,,,,,,,19.32,-0.437473,0.034435,0011199999999100,3,100,12.3
61942,72512,2007/10/16 18:01:10,42.9763,5.4322,,,,,,,,,19.24,-0.463104,0.030431,0011199999999100,3,100,12.3
61942,72512,2007/10/16 19:00:10,42.9774,5.4116,,,,,,,,,19.24,-0.473413,0.034552,0011199999999100,3,100,12.3
61942,72512,2007/10/16 20:00:17,42.9790,5.3908,,,,,,,,,19.24,-0.46912,0.049324,0011199999999100,1,100,12.3
61942,72512,2007/10/16 21:01:40,42.9803,5.3693,,,,,,,,,19.32,-0.47489,0.039249,0011199999999100,1,100,12.3
61942,72512,2007/10/16 22:00:11,42.9821,5.3483,,,,,,,,,19.24,-0.486557,0.057007,0011199999999100,1,100,12.3
61942,72512,2007/10/16 23:01:05,42.9836,5.3261,,,,,,,,,19.32,-0.494217,0.045647,0011199999999100,1,100,12.2
61942,72512,2007/10/17 00:00:28,42.9856,5.3049,,,,,,,,,19.32,-0.483995,0.062416,0011199999999100,5,100,12.3
61942,72512,2007/10/17 01:00:16,42.9867,5.2835,,,,,,,,,19.32,-0.485145,0.03409,0011199999999100,4,100,12.3
61942,72512,2007/10/17 02:00:40,42.9886,5.2627,,,,,,,,,19.32,-0.466847,0.058298,0011199999999100,1,100,12.3
61942,72512,2007/10/17 03:00:00,42.9915,5.2532,,,,,,,,,19.24,-0.217505,0.089331,0011199999999100,5,100,12.3
61942,72512,2007/10/17 04:00:22,42.9892,5.2236,,,,,,,,,19.24,-0.664248,-0.069382,0011199999999100,1,100,12.3
61942,72512,2007/10/17 05:00:40,42.9883,5.2038,,,,,,,,,19.24,-0.445132,-0.02766,0011199999999100,1,100,12.3
61942,72512,2007/10/17 06:00:16,42.9861,5.1838,,,,,,,,,19.24,-0.45492,-0.068409,0011199999999100,1,100,12.3
61942,72512,2007/10/17 07:00:16,42.9829,5.1635,,,,,,,,,19.16,-0.458686,-0.09884,0011199999999100,1,100,12.3
61942,72512,2007/10/17 08:01:04,42.9792,5.1415,,,,,,,,,19.16,-0.490585,-0.11278,0011199999999100,1,100,12.3
61942,72512,2007/10/17 09:00:16,42.9763,5.1200,,,,,,,,,19.16,-0.492419,-0.090784,0011199999999100,1,100,12.3
61942,72512,2007/10/17 10:00:10,42.9741,5.0987,,,,,,,,,19.24,-0.482158,-0.068066,0011199999999100,1,100,12.3
61942,72512,2007/10/17 11:01:27,42.9722,5.0763,,,,,,,,,19.24,-0.495629,-0.057457,0011199999999100,1,100,12.3
61942,72512,2007/10/17 12:00:17,42.9709,5.0553,,,,,,,,,19.24,-0.484014,-0.04095,0011199999999100,3,100,12.3
61942,72512,2007/10/17 13:00:10,42.9708,5.0350,,,,,,,,,19.32,-0.459682,-0.003095,0011199999999100,4,100,12.3
61942,72512,2007/10/17 14:00:40,42.9706,5.0168,,,,,,,,,19.32,-0.407929,-0.006126,0011199999999100,4,100,12.3
61942,72512,2007/10/17 15:00:10,42.9695,5.0005,,,,,,,,,19.32,-0.371487,-0.034262,0011199999999100,1,100,12.3
61942,72512,2007/10/17 16:00:10,42.9685,4.9846,,,,,,,,,19.32,-0.359357,-0.030887,0011199999999100,5,100,12.3
61942,72512,2007/10/17 17:00:10,42.9670,4.9697,,,,,,,,,19.32,-0.336763,-0.046331,0011199999999100,1,57,12.3
61942,72512,2007/10/17 18:00:40,42.9658,4.9540,,,,,,,,,19.32,-0.351919,-0.036759,0011199999999100,1,20,12.2
61942,72512,2007/10/17 19:00:11,42.9634,4.9390,,,,,,,,,19.24,-0.341794,-0.074732,0011199999999100,3,14,12.3
61942,72512,2007/10/17 20:00:10,42.9608,4.9246,,,,,,,,,19.16,-0.325582,-0.08033,0011199999999100,1,0,12.3
61942,72512,2007/10/17 21:00:40,42.9578,4.9100,,,,,,,,,19.16,-0.3273,-0.091897,0011199999999100,1,1,12.3
61942,72512,2007/10/17 22:00:11,42.9551,4.8956,,,,,,,,,19.16,-0.328165,-0.084073,0011199999999100,1,6,12.3
61942,72512,2007/10/17 23:00:16,42.9526,4.8808,,,,,,,,,19.16,-0.334114,-0.077112,0011199999999100,1,7,12.3
61942,72512,2007/10/18 00:00:40,42.9501,4.8666,,,,,,,,,19.24,-0.318901,-0.076707,0011199999999100,1,11,12.3
61942,72512,2007/10/18 01:00:10,42.9481,4.8519,,,,,,,,,19.24,-0.335136,-0.062294,0011199999999100,1,23,12.3
61942,72512,2007/10/18 02:00:16,42.9466,4.8374,,,,,,,,,19.24,-0.327285,-0.046254,0011199999999100,3,63,12.3
61942,72512,2007/10/18 03:00:11,42.9456,4.8226,,,,,,,,,19.16,-0.335086,-0.03093,0011199999999100,3,100,12.3
61942,72512,2007/10/18 04:00:40,42.9450,4.8090,,,,,,,,,19.16,-0.305036,-0.018384,0011199999999100,3,100,12.3
61942,72512,2007/10/18 05:00:22,42.9446,4.7959,,,,,,,,,19.16,-0.297679,-0.012417,0011199999999100,1,100,12.3
61942,72512,2007/10/18 06:00:10,42.9446,4.7828,,,,,,,,,19.16,-0.297182,0,0011199999999100,1,100,12.3
61942,72512,2007/10/18 07:00:16,42.9441,4.7715,,,,,,,,,19.16,-0.255069,-0.015418,0011199999999100,1,100,12.3
61942,72512,2007/10/18 08:00:38,42.9435,4.7585,,,,,,,,,19.56,-0.292149,-0.01842,0011199999999100,1,100,12.3
61942,72512,2007/10/18 09:00:22,42.9432,4.7462,,,,,,,,,19.8,-0.279351,-0.009308,0011199999999100,1,100,12.3
61942,72512,2007/10/18 10:00:40,42.9432,4.7337,,,,,,,,,19.88,-0.281226,0,0011199999999100,1,100,12.3
61942,72512,2007/10/18 12:00:40,42.9420,4.7082,,,,,,,,,19.88,-0.288287,-0.018532,0011199999999100,1,100,12.3
61942,72512,2007/10/18 13:02:10,42.9415,4.6949,,,,,,,,,19.88,-0.293393,-0.015067,0011199999999100,1,100,12.2
61942,72512,2007/10/18 14:01:02,42.9415,4.6821,,,,,,,,,19.88,-0.294995,0,0011199999999100,1,100,12.3
61942,72512,2007/10/18 15:00:16,42.9417,4.6692,,,,,,,,,19.8,-0.295459,0.006257,0011199999999100,1,100,12.3
61942,72512,2007/10/18 16:00:18,42.9420,4.6564,,,,,,,,,19.72,-0.289261,0.009261,0011199999999100,1,100,12.3
61942,72512,2007/10/18 17:01:39,42.9425,4.6445,,,,,,,,,19.64,-0.263149,0.015104,0011199999999100,1,100,12.3
61942,72512,2007/10/18 18:00:28,42.9430,4.6335,,,,,,,,,19.56,-0.253722,0.015754,0011199999999100,3,100,12.3
61942,72512,2007/10/18 19:00:10,42.9435,4.6222,,,,,,,,,19.48,-0.256783,0.015521,0011199999999100,1,100,12.3
61942,72512,2007/10/18 20:01:41,42.9441,4.6117,,,,,,,,,19.32,-0.231555,0.018076,0011199999999100,1,100,12.3
61942,72512,2007/10/18 21:00:28,42.9439,4.6013,,,,,,,,,19.32,-0.240014,-0.006305,0011199999999100,1,100,12.3
61942,72512,2007/10/18 22:01:04,42.9433,4.5898,,,,,,,,,19.32,-0.257445,-0.018349,0011199999999100,1,100,12.3
61942,72512,2007/10/18 23:00:11,42.9433,4.5772,,,,,,,,,19.32,-0.289149,0,0011199999999100,4,100,12.3
61942,72512,2007/10/19 00:00:16,42.9444,4.5622,,,,,,,,,19.24,-0.338684,0.033929,0011199999999100,1,100,12.3
61942,72512,2007/10/19 01:02:03,42.9464,4.5471,,,,,,,,,19.24,-0.331553,0.059992,0011199999999100,3,100,12.3
61942,72512,2007/10/19 02:00:18,42.9488,4.5342,,,,,,,,,19.24,-0.300417,0.076357,0011199999999100,1,100,12.2
61942,72512,2007/10/19 03:00:10,42.9516,4.5217,,,,,,,,,19.16,-0.283229,0.086678,0011199999999100,3,100,12.2
61942,72512,2007/10/19 04:01:10,42.9555,4.5107,,,,,,,,,19.16,-0.244598,0.118486,0011199999999100,1,100,12.2
61942,72512,2007/10/19 05:00:10,42.9594,4.5012,,,,,,,,,19.24,-0.21839,0.122503,0011199999999100,1,100,12.2
61942,72512,2007/10/19 06:00:16,42.9637,4.4927,,,,,,,,,19.24,-0.191813,0.132595,0011199999999100,1,100,12.2
61942,72512,2007/10/19 07:00:22,42.9679,4.4854,,,,,,,,,19.16,-0.164722,0.129512,0011199999999100,1,100,12.2
61942,72512,2007/10/19 08:01:09,42.9725,4.4788,,,,,,,,,19.16,-0.147242,0.140251,0011199999999100,3,100,12.2
61942,72512,2007/10/19 09:00:18,42.9737,4.4718,,,,,,,,,19.16,-0.16047,0.037598,0011199999999100,1,100,12.2
61942,72512,2007/10/19 10:00:16,42.9746,4.4654,,,,,,,,,19.08,-0.144715,0.027814,0011199999999100,1,100,12.2
61942,72512,2007/10/19 11:00:40,42.9752,4.4589,,,,,,,,,19.08,-0.14592,0.01841,0011199999999100,1,100,12.2
61942,72512,2007/10/19 12:00:15,42.9761,4.4526,,,,,,,,,19.08,-0.143367,0.027993,0011199999999100,1,100,12.2
61942,72512,2007/10/19 13:00:09,42.9781,4.4473,,,,,,,,,19.08,-0.11997,0.061878,0011199999999100,1,100,12.2
61942,72512,2007/10/19 14:01:10,42.9797,4.4429,,,,,,,,,19.08,-0.097772,0.048597,0011199999999100,4,100,12.2
61942,72512,2007/10/19 15:00:22,42.9811,4.4384,,,,,,,,,19.08,-0.10306,0.043827,0011199999999100,1,100,12.2
61942,72512,2007/10/19 16:00:10,42.9823,4.4343,,,,,,,,,19.08,-0.092955,0.037189,0011199999999100,3,100,12.2
61942,72512,2007/10/19 17:01:40,42.9831,4.4306,,,,,,,,,19,-0.081566,0.024107,0011199999999100,1,100,12.2
61942,72512,2007/10/19 18:00:17,42.9837,4.4261,,,,,,,,,19,-0.104081,0.01897,0011199999999100,3,100,12.2